GW0968 Weather Reports


time (UTC)temp
C
wind
direction
speed
KPH
gust
KPH
rain 1hr
cm
rain 24hr
cm
rain mn
cm
humidity
%
barometer
mb
20260902060518 14 234 0.0 1.6 0.00 0.00 0.00 96 1022.5
20260902060126 14 234 0.0 1.6 0.00 0.00 0.00 95 1022.4
20260902055524 14 234 0.0 1.6 0.00 0.00 0.00 95 1022.3
20260902055026 15 234 0.0 3.2 0.00 0.00 0.00 96 1022.1
20260902054551 15 234 0.0 3.2 0.00 0.00 0.00 95 1022.1
20260902054017 15 234 0.0 3.2 0.00 0.00 0.00 96 1022.2
20260902053524 15 234 0.0 3.2 0.00 0.00 0.00 96 1022.0
20260902053059 15 225 0.0 1.6 0.00 0.00 0.00 96 1022.0
20260902052522 15 225 0.0 3.2 0.00 0.00 0.00 96 1022.0
20260902052021 15 225 0.0 3.2 0.00 0.00 0.00 96 1021.9
20260902051533 15 260 0.0 4.8 0.00 0.00 0.00 95 1021.9
20260902051022 15 260 1.6 4.8 0.00 0.00 0.00 96 1022.0
20260902050520 15 262 0.0 1.6 0.00 0.00 0.00 96 1022.0
20260902050123 15 262 0.0 3.2 0.00 0.00 0.00 96 1021.9
20260902045520 15 262 0.0 3.2 0.00 0.00 0.00 95 1021.9
20260902045024 15 262 0.0 1.6 0.00 0.00 0.00 95 1021.8
20260902044604 15 262 0.0 1.6 0.00 0.00 0.00 96 1021.8
20260902044024 15 262 0.0 1.6 0.00 0.00 0.00 96 1021.9
20260902043517 15 262 0.0 0.0 0.00 0.00 0.00 95 1021.8
20260902043104 15 262 0.0 0.0 0.00 0.00 0.00 95 1021.8
20260902042521 15 262 0.0 0.0 0.00 0.00 0.00 95 1021.6
20260902042030 15 262 0.0 1.6 0.00 0.00 0.00 95 1021.6
20260902041624 15 262 0.0 1.6 0.00 0.00 0.00 95 1021.5
20260902041019 15 262 0.0 1.6 0.00 0.00 0.00 96 1021.5
20260902040525 15 262 0.0 0.0 0.00 0.00 0.00 96 1021.6
20260902040039 15 262 0.0 1.6 0.00 0.00 0.00 96 1021.6
20260902035518 15 262 0.0 1.6 0.00 0.00 0.00 96 1021.8
20260902035019 15 262 0.0 1.6 0.00 0.00 0.00 96 1021.7
20260902034619 15 262 0.0 0.0 0.00 0.00 0.00 96 1021.8
20260902034025 15 262 0.0 0.0 0.00 0.00 0.00 96 1021.8
20260902033525 15 262 0.0 0.0 0.00 0.00 0.00 96 1021.9
20260902033059 15 262 0.0 0.0 0.00 0.00 0.00 95 1021.8
20260902032528 15 262 0.0 0.0 0.00 0.00 0.00 95 1021.8
20260902032026 15 262 0.0 0.0 0.00 0.00 0.00 95 1021.6
20260902031608 15 262 0.0 1.6 0.00 0.00 0.00 95 1021.6
20260902031018 15 262 0.0 1.6 0.00 0.00 0.00 95 1021.5
20260902030524 15 262 0.0 1.6 0.00 0.00 0.00 95 1021.7
20260902030107 15 269 0.0 0.0 0.00 0.00 0.00 95 1021.7
20260902025525 15 269 0.0 0.0 0.00 0.00 0.00 94 1021.7
20260902025029 15 269 0.0 0.0 0.00 0.00 0.00 94 1021.6
20260902024549 15 269 0.0 0.0 0.00 0.00 0.00 94 1021.3
20260902024024 15 269 0.0 1.6 0.00 0.00 0.00 95 1021.3
20260902023519 15 269 0.0 1.6 0.00 0.00 0.00 95 1021.3
20260902023045 15 269 0.0 1.6 0.00 0.00 0.00 95 1021.4
20260902022519 15 269 0.0 1.6 0.00 0.00 0.00 94 1021.2
20260902022018 15 269 0.0 0.0 0.00 0.00 0.00 94 1021.3
20260902021556 15 269 0.0 3.2 0.00 0.00 0.00 94 1021.0
20260902021021 15 269 0.0 3.2 0.00 0.00 0.00 94 1020.9
20260902020520 15 269 0.0 1.6 0.00 0.00 0.00 94 1021.0
20260902020058 16 269 0.0 0.0 0.00 0.00 0.00 93 1021.0
20260902015525 16 269 0.0 0.0 0.00 0.00 0.00 93 1021.2
20260902015021 16 269 0.0 0.0 0.00 0.00 0.00 93 1021.1
20260902014604 16 269 0.0 0.0 0.00 0.00 0.00 93 1021.2
20260902014017 16 269 0.0 1.6 0.00 0.00 0.00 93 1021.2
20260902013519 16 269 0.0 1.6 0.00 0.00 0.00 92 1021.2
20260902013153 16 269 0.0 1.6 0.00 0.00 0.00 92 1021.2
20260902012526 16 269 0.0 1.6 0.00 0.00 0.00 92 1021.1
20260902012018 16 269 0.0 1.6 0.00 0.00 0.00 91 1021.1
20260902011559 16 269 0.0 1.6 0.00 0.00 0.00 92 1021.1
20260902011017 16 269 0.0 3.2 0.00 0.00 0.00 91 1021.1
20260902010519 16 269 0.0 3.2 0.00 0.00 0.00 91 1021.2
20260902010117 16 217 0.0 0.0 0.00 0.00 0.00 91 1021.2
20260902005519 16 217 0.0 1.6 0.00 0.00 0.00 91 1021.2
20260902005019 17 217 0.0 3.2 0.00 0.00 0.00 91 1021.2
20260902004551 17 229 0.0 3.2 0.00 0.00 0.00 91 1021.1
20260902004023 17 175 0.0 3.2 0.00 0.00 0.00 91 1021.0
20260902003527 17 174 0.0 3.2 0.00 0.00 0.00 91 1020.9
20260902003059 17 190 0.0 1.6 0.00 0.00 0.00 91 1020.9
20260902002518 17 190 0.0 1.6 0.00 0.00 0.00 91 1021.0
20260902002042 17 190 0.0 1.6 0.00 0.00 0.00 90 1020.8
20260902001550 17 190 0.0 1.6 0.00 0.00 0.00 89 1020.6
20260902001019 17 190 0.0 1.6 0.00 0.00 0.00 89 1020.6
20260902000517 17 190 0.0 3.2 0.00 0.00 0.00 88 1020.8
20260902000059 17 248 0.0 3.2 0.00 0.00 0.00 88 1020.7
20260901235519 17 241 0.0 1.6 0.00 0.00 0.00 88 1020.7
20260901235021 17 241 0.0 6.4 0.00 0.00 0.00 87 1020.8
20260901234601 17 252 0.0 6.4 0.00 0.00 0.00 87 1020.9
20260901234043 17 263 0.0 3.2 0.00 0.00 0.00 87 1020.9
20260901233525 17 209 0.0 1.6 0.00 0.00 0.00 87 1021.0
20260901233122 18 180 0.0 3.2 0.00 0.00 0.00 87 1021.0
20260901232535 18 180 0.0 3.2 0.00 0.00 0.00 88 1020.9
20260901232021 18 180 0.0 1.6 0.00 0.00 0.00 87 1021.1
20260901231555 18 180 0.0 3.2 0.00 0.00 0.00 87 1021.0
20260901231017 18 180 0.0 3.2 0.00 0.00 0.00 87 1021.0
20260901230520 18 187 0.0 1.6 0.00 0.00 0.00 87 1020.9
20260901230104 18 187 0.0 1.6 0.00 0.00 0.00 87 1020.9
20260901225523 18 187 0.0 3.2 0.00 0.00 0.00 86 1021.0
20260901225025 18 191 0.0 6.4 0.00 0.00 0.00 85 1021.0
20260901224556 18 184 0.0 11.3 0.00 0.00 0.00 85 1020.8
20260901224025 18 209 0.0 4.8 0.00 0.00 0.00 85 1020.8
20260901223521 18 242 1.6 4.8 0.00 0.00 0.00 84 1020.8
20260901223054 18 261 1.6 9.7 0.00 0.00 0.00 84 1020.7
20260901222518 18 256 1.6 9.7 0.00 0.00 0.00 83 1020.7
20260901222020 18 273 1.6 8.0 0.00 0.00 0.00 83 1020.6
20260901221637 19 219 0.0 3.2 0.00 0.00 0.00 83 1020.6
20260901221025 19 263 0.0 4.8 0.00 0.00 0.00 83 1020.6
20260901220619 19 252 0.0 4.8 0.00 0.00 0.00 83 1020.6
20260901220107 19 245 0.0 4.8 0.00 0.00 0.00 83 1020.5
20260901215523 19 252 0.0 9.7 0.00 0.00 0.00 83 1020.4
20260901215029 19 227 0.0 9.7 0.00 0.00 0.00 82 1020.4
20260901214556 19 249 1.6 6.4 0.00 0.00 0.00 81 1020.4
20260901214021 20 198 1.6 9.7 0.00 0.00 0.00 82 1020.4
20260901213518 20 268 0.0 6.4 0.00 0.00 0.00 81 1020.3
20260901213056 20 234 1.6 11.3 0.00 0.00 0.00 80 1020.2
20260901212519 20 240 1.6 11.3 0.00 0.00 0.00 80 1020.1
20260901212017 20 220 3.2 9.7 0.00 0.00 0.00 79 1020.1
20260901211550 20 249 1.6 4.8 0.00 0.00 0.00 80 1020.1
20260901211019 20 206 0.0 4.8 0.00 0.00 0.00 80 1020.2
20260901210521 20 264 0.0 4.8 0.00 0.00 0.00 78 1020.4
20260901205518 21 250 0.0 3.2 0.00 0.00 0.00 78 1020.5
20260901205017 21 230 0.0 6.4 0.00 0.00 0.00 78 1020.5
20260901204601 21 248 1.6 8.0 0.00 0.00 0.00 77 1020.5
20260901204023 21 242 3.2 9.7 0.00 0.00 0.00 74 1020.6
20260901203525 21 250 1.6 6.4 0.00 0.00 0.00 75 1020.5
20260901203219 21 254 1.6 6.4 0.00 0.00 0.00 74 1020.5
20260901202519 22 248 1.6 9.7 0.00 0.00 0.00 73 1020.4
20260901202018 22 188 1.6 11.3 0.00 0.00 0.00 72 1020.4
20260901201600 22 180 4.8 11.3 0.00 0.00 0.00 76 1020.3
20260901201021 21 223 1.6 14.5 0.00 0.00 0.00 78 1020.2
20260901200529 21 232 3.2 14.5 0.00 0.00 0.00 77 1020.1
20260901200108 21 200 1.6 11.3 0.00 0.00 0.00 77 1020.1
20260901195519 21 227 3.2 14.5 0.00 0.00 0.00 80 1020.3
20260901195023 21 249 3.2 12.9 0.00 0.00 0.00 78 1020.3
20260901194624 21 198 0.0 12.9 0.00 0.00 0.00 79 1020.3
20260901194018 21 257 1.6 6.4 0.00 0.00 0.00 79 1020.3
20260901193522 20 211 0.0 4.8 0.00 0.00 0.00 79 1020.2
20260901193035 20 238 1.6 14.5 0.00 0.00 0.00 80 1020.4
20260901192518 20 244 1.6 14.5 0.00 0.00 0.00 80 1020.4
20260901192025 20 175 4.8 14.5 0.00 0.00 0.00 77 1020.4
20260901191624 21 246 1.6 12.9 0.00 0.00 0.00 77 1020.4
20260901191022 21 238 1.6 12.9 0.00 0.00 0.00 77 1020.3
20260901190519 21 197 6.4 11.3 0.00 0.00 0.00 78 1020.3
20260901190348 21 241 0.0 6.4 0.00 0.00 0.00 80 1020.4
20260901185519 21 224 1.6 12.9 0.00 0.00 0.00 78 1020.5
20260901185019 21 181 6.4 12.9 0.00 0.00 0.00 79 1020.4
20260901184533 20 184 1.6 14.5 0.00 0.00 0.00 77 1020.5
20260901184021 20 143 1.6 14.5 0.00 0.00 0.00 80 1020.4
20260901183522 21 169 3.2 9.7 0.00 0.00 0.00 75 1020.5
20260901183052 21 269 3.2 9.7 0.00 0.00 0.00 79 1020.5
20260901182524 21 247 1.6 8.0 0.00 0.00 0.00 80 1020.5
20260901182026 21 272 3.2 9.7 0.00 0.00 0.00 78 1020.5
20260901181624 21 175 3.2 12.9 0.00 0.00 0.00 76 1020.5
20260901181024 21 208 3.2 14.5 0.00 0.00 0.00 76 1020.5
20260901180521 21 251 3.2 14.5 0.00 0.00 0.00 77 1020.5
20260901180105 22 250 3.2 12.9 0.00 0.00 0.00 73 1020.3
20260901175520 22 217 1.6 8.0 0.00 0.00 0.00 76 1020.3
20260901175025 22 243 3.2 9.7 0.00 0.00 0.00 76 1020.4
20260901174610 22 194 4.8 9.7 0.00 0.00 0.00 78 1020.5
20260901174027 22 234 3.2 11.3 0.00 0.00 0.00 77 1020.5
20260901173526 22 213 1.6 11.3 0.00 0.00 0.00 79 1020.5
20260901173108 22 280 3.2 8.0 0.00 0.00 0.00 78 1020.4
20260901172521 21 239 1.6 11.3 0.00 0.00 0.00 77 1020.4
20260901172021 21 232 1.6 11.3 0.00 0.00 0.00 76 1020.5
20260901171609 21 198 1.6 9.7 0.00 0.00 0.00 77 1020.5
20260901171020 21 228 1.6 12.9 0.00 0.00 0.00 81 1020.6
20260901170526 21 173 6.4 12.9 0.00 0.00 0.00 80 1020.4
20260901170159 21 230 1.6 11.3 0.00 0.00 0.00 83 1020.6
20260901165519 21 180 4.8 11.3 0.00 0.00 0.00 83 1020.7
20260901165026 21 219 3.2 9.7 0.00 0.00 0.00 79 1020.8
20260901164609 20 277 1.6 6.4 0.00 0.00 0.00 81 1021.7
20260901164019 20 240 1.6 6.4 0.00 0.00 0.00 83 1021.5
20260901163524 19 163 1.6 4.8 0.00 0.00 0.00 84 1020.9
20260901163110 19 237 0.0 4.8 0.00 0.00 0.00 85 1021.0
20260901162520 18 215 0.0 6.4 0.00 0.00 0.00 84 1020.8
20260901162020 18 197 3.2 6.4 0.00 0.00 0.00 85 1020.6
20260901161615 18 136 1.6 11.3 0.00 0.00 0.00 85 1020.6
20260901161018 18 251 3.2 11.3 0.00 0.00 0.00 84 1020.6
20260901160519 19 195 0.0 9.7 0.00 0.00 0.00 86 1021.2
20260901160128 18 217 1.6 8.0 0.00 0.00 0.00 85 1022.2
20260901155517 18 184 1.6 8.0 0.00 0.00 0.00 91 1021.9
20260901155027 17 190 3.2 16.1 0.00 0.00 0.00 88 1020.5
20260901154639 17 233 4.8 16.1 0.00 0.00 0.00 87 1020.1
20260901154024 18 198 4.8 12.9 0.00 0.00 0.00 86 1019.8
20260901153522 18 120 6.4 12.9 0.00 0.00 0.00 85 1019.9
20260901153129 19 163 3.2 12.9 0.00 0.00 0.00 84 1021.2
20260901152519 20 213 6.4 12.9 0.00 0.00 0.00 84 1022.8
20260901152017 19 176 3.2 9.7 0.00 0.00 0.00 87 1022.2
20260901151624 18 155 1.6 12.9 0.00 0.00 0.00 87 1021.1
20260901151025 18 184 3.2 12.9 0.00 0.00 0.00 89 1022.5
20260901150524 18 239 1.6 6.4 0.00 0.00 0.00 91 1022.4
20260901150127 18 237 1.6 9.7 0.00 0.00 0.00 92 1021.4
20260901145524 17 233 1.6 11.3 0.00 0.00 0.00 90 1021.0
20260901145025 17 246 3.2 11.3 0.00 0.00 0.00 90 1021.1
20260901144625 17 217 3.2 8.0 0.00 0.00 0.00 92 1021.0
20260901144025 17 259 1.6 9.7 0.00 0.00 0.00 93 1021.2
20260901143524 17 237 1.6 9.7 0.00 0.00 0.00 94 1021.3
20260901143126 16 196 1.6 9.7 0.00 0.00 0.00 93 1020.2
20260901142518 17 154 3.2 9.7 0.00 0.00 0.00 92 1020.5
20260901142150 17 215 3.2 11.3 0.00 0.00 0.00 94 1020.6
20260901141657 16 248 1.6 11.3 0.00 0.00 0.00 94 1020.2
20260901141047 16 202 1.6 8.0 0.00 0.00 0.00 93 1020.0
20260901140552 17 246 3.2 6.4 0.00 0.00 0.00 93 1020.5
20260901140225 17 257 1.6 6.4 0.00 0.00 0.00 93 1020.2
20260901135552 17 237 1.6 11.3 0.00 0.00 0.00 95 1020.0
20260901135048 17 247 3.2 12.9 0.00 0.00 0.00 94 1020.0
20260901134651 17 271 3.2 12.9 0.00 0.00 0.00 95 1020.2
20260901134026 16 223 3.2 8.0 0.00 0.00 0.00 96 1020.3
20260901133537 16 242 1.6 11.3 0.00 0.00 0.00 96 1020.2
20260901133106 16 217 4.8 9.7 0.00 0.00 0.00 96 1020.3
20260901132521 16 240 1.6 9.7 0.00 0.00 0.00 96 1020.4
20260901132025 16 244 0.0 9.7 0.00 0.00 0.00 97 1020.6
20260901131625 16 240 1.6 9.7 0.00 0.00 0.00 97 1020.3
20260901131019 15 246 1.6 6.4 0.00 0.00 0.00 97 1020.3
20260901130524 15 248 0.0 8.0 0.00 0.00 0.00 97 1020.3
20260901130219 15 163 1.6 8.0 0.00 0.00 0.00 97 1020.4
20260901125523 15 196 0.0 4.8 0.00 0.00 0.00 97 1020.3
20260901125027 15 250 3.2 4.8 0.00 0.00 0.00 97 1020.2
20260901124556 15 181 0.0 1.6 0.00 0.00 0.00 97 1020.4
20260901124024 14 176 0.0 4.8 0.00 0.00 0.00 97 1020.6
20260901123525 14 114 0.0 4.8 0.00 0.00 0.00 97 1020.7
20260901123105 13 220 0.0 3.2 0.00 0.00 0.00 96 1020.6
20260901122525 13 250 0.0 3.2 0.00 0.00 0.00 96 1020.5
20260901122024 13 250 0.0 3.2 0.00 0.00 0.00 96 1020.5
20260901121603 13 213 0.0 1.6 0.00 0.00 0.00 96 1020.6
20260901121026 13 213 0.0 1.6 0.00 0.00 0.00 96 1021.0
20260901120523 13 213 0.0 1.6 0.00 0.00 0.00 96 1021.0
20260901120120 13 213 0.0 1.6 0.00 0.00 0.00 96 1021.1
20260901115521 13 213 0.0 3.2 0.00 0.00 0.00 96 1021.1
20260901115025 13 213 0.0 3.2 0.00 0.00 0.00 96 1021.1
20260901114603 13 248 0.0 1.6 0.00 0.00 0.00 96 1021.1
20260901114025 13 248 0.0 3.2 0.00 0.00 0.00 96 1021.1
20260901113524 13 248 0.0 3.2 0.00 0.00 0.00 96 1021.3
20260901113105 13 227 0.0 1.6 0.00 0.00 0.00 97 1021.3
20260901112525 13 226 0.0 1.6 0.00 0.00 0.00 97 1021.3
20260901112021 13 226 0.0 3.2 0.00 0.00 0.00 97 1021.2
20260901111610 13 226 0.0 3.2 0.00 0.00 0.00 96 1021.2
20260901111025 13 213 0.0 3.2 0.00 0.00 0.00 96 1021.2
20260901110524 13 213 0.0 1.6 0.00 0.00 0.00 96 1021.2
20260901110127 13 213 0.0 1.6 0.00 0.00 0.00 96 1021.0
20260901105524 13 213 0.0 1.6 0.00 0.00 0.00 96 1020.9
20260901105025 13 213 0.0 3.2 0.00 0.00 0.00 96 1020.9
20260901104616 13 213 0.0 3.2 0.00 0.00 0.00 96 1020.9
20260901104025 13 213 1.6 3.2 0.00 0.00 0.00 95 1020.9
20260901103524 13 213 0.0 0.0 0.00 0.00 0.00 95 1020.8
20260901103058 13 213 0.0 0.0 0.00 0.00 0.00 96 1020.7
20260901102521 13 213 0.0 1.6 0.00 0.00 0.00 96 1020.8
20260901102042 13 213 0.0 1.6 0.00 0.00 0.00 96 1020.9
20260901102038 13 213 0.0 0.0 0.00 0.00 0.00 96 1020.9
20260901101024 13 213 0.0 1.6 0.00 0.00 0.00 96 1020.9
20260901100522 13 213 0.0 1.6 0.00 0.00 0.00 95 1020.8
20260901100123 13 213 0.0 1.6 0.00 0.00 0.00 95 1020.7
20260901095521 13 213 0.0 3.2 0.00 0.00 0.00 95 1020.7
20260901095024 13 213 0.0 4.8 0.00 0.00 0.00 95 1020.6
20260901094607 13 244 1.6 4.8 0.00 0.00 0.00 95 1020.5
20260901094021 13 219 0.0 3.2 0.00 0.00 0.00 95 1020.3
20260901093524 13 219 1.6 3.2 0.00 0.00 0.00 95 1020.4
20260901093123 13 219 0.0 1.6 0.00 0.00 0.00 96 1020.2
20260901092525 13 219 0.0 1.6 0.00 0.00 0.00 96 1020.3
20260901092025 13 218 0.0 1.6 0.00 0.00 0.00 96 1020.6
20260901091629 13 217 0.0 1.6 0.00 0.00 0.00 96 1020.7
20260901091023 13 207 0.0 1.6 0.00 0.00 0.00 95 1020.7
20260901090527 13 206 0.0 3.2 0.00 0.00 0.00 95 1020.9
20260901090126 13 207 0.0 3.2 0.00 0.00 0.00 95 1020.7
20260901085524 13 234 0.0 3.2 0.00 0.00 0.00 95 1020.7
20260901085024 13 234 0.0 3.2 0.00 0.00 0.00 95 1020.6
20260901084616 13 203 0.0 1.6 0.00 0.00 0.00 95 1020.7
20260901084025 13 251 0.0 1.6 0.00 0.00 0.00 95 1020.6
20260901083525 13 251 0.0 1.6 0.00 0.00 0.00 95 1020.6
20260901083103 13 251 0.0 3.2 0.00 0.00 0.00 95 1020.6
20260901082524 13 251 0.0 3.2 0.00 0.00 0.00 95 1020.4
20260901082025 13 251 0.0 6.4 0.00 0.00 0.00 95 1020.5
20260901081616 13 209 3.2 6.4 0.00 0.00 0.00 94 1020.7
20260901081025 13 159 1.6 4.8 0.00 0.00 0.00 94 1020.6
20260901080525 13 250 0.0 1.6 0.00 0.00 0.00 94 1020.7
20260901080117 13 250 0.0 1.6 0.00 0.00 0.00 94 1020.7
20260901075525 13 269 0.0 3.2 0.00 0.00 0.00 94 1020.6
20260901075025 13 269 1.6 4.8 0.00 0.00 0.00 94 1020.8
20260901074609 13 257 1.6 4.8 0.00 0.00 0.00 94 1020.8
20260901074028 13 266 0.0 3.2 0.00 0.00 0.00 94 1020.9
20260901073524 13 266 0.0 1.6 0.00 0.00 0.00 93 1021.0
20260901073054 13 266 0.0 1.6 0.00 0.00 0.00 93 1021.0
20260901072524 13 266 0.0 1.6 0.00 0.00 0.00 93 1021.0
20260901072019 13 266 0.0 3.2 0.00 0.00 0.00 93 1021.0
20260901071605 13 266 1.6 3.2 0.00 0.00 0.00 94 1020.9
20260901071019 13 279 0.0 1.6 0.00 0.00 0.00 94 1021.0
20260901070525 13 279 0.0 0.0 0.00 0.00 0.00 94 1021.0
20260901070107 13 279 0.0 1.6 0.00 0.00 0.00 94 1021.2
20260901065524 13 279 0.0 1.6 0.00 0.00 0.00 94 1021.2
20260901065023 13 279 0.0 1.6 0.00 0.00 0.00 94 1021.3
20260901064613 13 261 0.0 0.0 0.00 0.00 0.00 94 1021.3
20260901064021 13 261 0.0 1.6 0.00 0.00 0.00 94 1021.3
20260901063524 13 261 0.0 3.2 0.00 0.00 0.00 94 1021.3
20260901063109 13 261 0.0 3.2 0.00 0.00 0.00 94 1021.1
20260901062520 13 257 0.0 3.2 0.00 0.00 0.00 94 1021.0
20260901062018 13 257 0.0 3.2 0.00 0.00 0.00 93 1021.1
20260901061615 13 257 0.0 3.2 0.00 0.00 0.00 93 1021.0
20260901061025 13 257 0.0 1.6 0.00 0.00 0.00 93 1021.4